www.pogodaiklimat.ru
ПОГОДА в Белогорке

Архив погоды в Белогорке (Ленинградская область, Россия)

Время
(UTC), дата
06 9.07
09 9.07
12 9.07
15 9.07
18 9.07
21 9.07
00 10.07
03 10.07
06 10.07
09 10.07
12 10.07
15 10.07
18 10.07
21 10.07
00 11.07
03 11.07
06 11.07
09 11.07
12 11.07
15 11.07
18 11.07
21 11.07
00 12.07
03 12.07
06 12.07
09 12.07
12 12.07
15 12.07
18 12.07
21 12.07
00 13.07
03 13.07
06 13.07
09 13.07
12 13.07
15 13.07
18 13.07
21 13.07
00 14.07
03 14.07
06 14.07
09 14.07
12 14.07
15 14.07
18 14.07
21 14.07
00 15.07
03 15.07
06 15.07
09 15.07
12 15.07
15 15.07
18 15.07
21 15.07
00 16.07
03 16.07
Ветер
(напр.,м/с)
Видим. Явления Облачность Т
(С)
Тd
(С)
f
(%)
Тe
(С)
Тes
(С)
Комфортность P
(гПа)
Po
(гПа)
Тmin
(С)
Tmax
(С)
R
(мм)
R24
(мм)
S
(см)
З 1 10 км 3/0
[Ac trans]
+18.5 +11.6 64 +20 +27 1022.4 1011.8 +8.8
З 3 10 км 3/3 600 м
[Cu hum]
+21.0 +9.3 47 +23 +31 комфорт 1023.2 1012.7
З 1 10 км 8/8 600 м
[Cu hum]
+23.1 +10.0 43 +25 +28 комфорт 1022.6 1012.2
З 4 10 км 8/8 420 м
[Cb cap]
+23.0 +9.8 43 +25 +25 комфорт 1022.5 1012.1
Ю 1 10 км 5/5 300 м
[Cb cap]
+20.0 +12.3 61 +23 +23 комфорт 1022.9 1012.4 +23.7
штиль 0 50 км 3/0
[Cs]
+11.8 +10.9 94 +11 +11 1023.9 1013.0
Ю 1 50 км 4/0
[Cs]
+10.2 +9.8 97 +10 +10 1024.9 1014.0
ЮЗ 1 10 км 3/0
[Cs]
+12.6 +11.8 95 +13 +14 1025.9 1015.1 +9.6
З 1 10 км ясно +19.3 +12.6 65 +22 +30 комфорт 1026.7 1016.1 +9.6
З 2 10 км 8/5 600 м
[Cu Sc Ci fib]
+21.5 +11.4 53 +24 +29 комфорт 1026.5 1016.0
СЗ 1 10 км 4/4 600 м
[Cu Sc]
+23.5 +10.5 44 +25 +33 комфорт 1026.2 1015.7
ЮЗ 1 10 км 6/3 600 м
[Cu med, cong Ci fib]
+24.3 +8.7 37 +25 +28 комфорт 1025.2 1014.8
штиль 0 10 км 8/3 600 м
[Sc Ci fib]
+19.6 +15.3 76 +21 +21 комфорт 1025.2 1014.6 +25.0
штиль 0 50 км 3/0
[Ci fib]
+12.2 +11.8 97 +12 +12 1026.0 1015.2
штиль 0 50 км 3/0
[Ci fib]
+10.3 +10.0 98 +9 +9 1026.2 1015.3
В 1 10 км 8/4 300 м
[Cb cap Ci fib]
+14.2 +12.5 90 +14 +15 1025.9 1015.1 +9.4
ЮВ 3 10 км 9/1 600 м
[Sc Ac trans Cs]
+21.5 +12.7 57 +24 +27 комфорт 1025.1 1014.6 +9.4
ЮВ 3 10 км 9/0
[As trans Cs]
+24.8 +12.9 48 +27 +35 жарко 1023.7 1013.3
ЮВ 3 10 км 9/1 600 м
[Cu med, cong Ac As Cs]
+25.6 +13.8 48 +28 +33 жарко 1021.7 1011.4
ЮВ 4 10 км 9/0
[Ac As Cs]
+25.2 +14.0 50 +28 +29 жарко 1020.2 1009.8
В 2 10 км 9/4 600 м
[Sc Ac As Ci fib]
+22.7 +14.2 59 +26 +26 жарко 1018.6 1008.2 +25.6
ЮВ 1 50 км 9/4 600 м
[Sc Ac As Ci fib]
+19.6 +14.0 70 +22 +22 комфорт 1017.1 1006.6
ЮВ 1 50 км 8/3 600 м
[Sc Ac As]
+18.2 +12.9 71 +20 +20 1016.1 1005.6
Ю 2 10 км 9/6 600 м
[Sc Ac As]
+19.0 +13.6 71 +21 +21 комфорт 1014.5 1004.0 +17.8
Ю 1 10 км в посл. час ливневой дождь 9/4 300 м
[Cb cap As trans Ci fib]
+18.9 +16.9 88 +21 +24 комфорт 1013.7 1003.2 +17.7 1
Ю 2 4000 м слаб. ливневой дождь 9/6 300 м
[Cb cap As trans]
+18.5 +17.8 96 +20 +23 1014.3 1003.8
ЮЗ 4 4000 м слаб. ливневой дождь 9/8 540 м
[Cb cap As trans]
+20.2 +19.1 93 +24 +25 комфорт 1013.2 1002.8
ЮЗ 2 10 км {ливн. дождь} 9/8 300 м
[Cb cap Ac trans]
+22.3 +19.6 85 +28 +29 душно 1012.7 1002.4 7
З 3 10 км {ливн. дождь} 9/4 300 м
[Cb cap Ac trans]
+19.8 +18.0 89 +23 +23 комфорт 1013.3 1002.9 +23.0 6
З 2 50 км 9/0
[Ac trans]
+17.7 +16.5 93 +18 +18 1014.0 1003.5
З 3 50 км 4/0
[Ci fib]
+16.3 +15.6 96 +16 +16 1014.5 1003.9
З 2 4000 м дымка 9/0
[As trans]
+15.9 +15.5 97 +16 +16 1014.4 1003.8 +15.4
З 1 1000 м дымка 9/0
[As trans]
+17.5 +16.4 93 +19 +22 1015.3 1004.8 +15.4
С 1 10 км 6/6 600 м
[Cu hum]
+22.7 +17.2 71 +28 +34 душно 1014.6 1004.3
З 1 10 км 8/8 300 м
[Cb cap]
+26.6 +15.0 49 +29 +32 жарко 1013.7 1003.5
СВ 1 10 км 9/3 600 м
[Cu hum Cs]
+24.7 +16.4 60 +28 +31 душно 1012.9 1002.7
СВ 1 10 км 9/3 300 м
[Cb cap Ac trans Ci fib]
+22.1 +17.1 73 +27 +27 душно 1012.5 1002.2 +26.7
В 1 50 км 9/0
[Ac trans Cs]
+18.9 +15.5 81 +21 +21 комфорт 1012.3 1001.8
СВ 1 50 км 9/0
[Ac trans]
+17.5 +15.4 87 +19 +19 1012.4 1001.8
СВ 2 10 км 8/3 600 м
[Sc Ac trans]
+18.1 +15.4 84 +19 +19 1011.8 1001.3 +16.6
СВ 2 10 км 9/5 300 м
[Cb cap Ac trans]
+19.7 +16.5 82 +23 +24 комфорт 1011.5 1001.0 +16.6
СВ 1 4000 м слаб. ливневой дождь 9/8 300 м
[Cb cap Ac trans]
+20.0 +19.1 95 +24 +27 комфорт 1012.1 1001.7
СВ 1 10 км в посл. час ливневой дождь 9/8 300 м
[Cb cap Ac trans]
+20.7 +19.8 95 +26 +28 душно 1012.6 1002.2
ЮЗ 3 10 км {ливн. дождь} 10/10 400 м
[Cb cap]
+19.7 +18.9 95 +23 +23 комфорт 1013.4 1003.0 12
10 км {ливн. дождь} н/о +17.7 +16.6 93 +18 +18 1013.9 1003.4 +21.5 12
З 3 50 км 9/9 420 м
[Cb cap]
+17.3 +16.4 94 +17 +17 1014.3 1003.8
З 2 50 км 6/6 700 м
[Sc]
+16.2 +15.3 94 +16 +16 1014.8 1004.2
З 3 10 км 8/8 660 м
[Sc]
+16.3 +15.5 95 +16 +16 1014.9 1004.3 +15.9 0.3
З 3 10 км 9/8 600 м
[Cu Sc Cs]
+19.4 +16.3 82 +22 +23 комфорт 1015.9 1005.4 +15.9
З 3 10 км 8/8 300 м
[Cb cap]
+22.0 +14.5 62 +25 +27 комфорт 1016.2 1005.8
З 4 10 км 4/3 600 м
[Cu Sc Ac trans]
+23.3 +12.9 52 +26 +31 жарко 1016.7 1006.3
З 2 10 км 8/8 600 м
[Cu Sc]
+24.3 +13.5 51 +27 +27 жарко 1016.4 1006.1
СВ 1 10 км 8/5 300 м
[Cb cap Ac trans]
+19.7 +15.8 78 +23 +23 комфорт 1017.3 1006.8 +24.5
штиль 0 50 км 3/3 300 м
[Cb cap]
+14.0 +13.5 97 +14 +14 1018.2 1007.5
штиль 0 50 км 6/3 600 м
[Sc Ac trans Ci fib]
+11.6 +11.3 98 +11 +11 1018.5 1007.7
штиль 0 10 км 6/3 600 м
[Sc Ac trans Ci fib]
+13.4 +13.2 99 +13 +13 1018.9 1008.1 +10.6
Местоположение метеостанции Белогорка (Ленинградская область, Россия): широта 59.35 долгота 30.13 высота над уровнем моря 89 м.
В архиве по умолчанию представлена погода в Белогорке за последнюю неделю. Архивные данные за месяц целиком и за предыдущие месяцы, начиная с января 2011 года, Вы можете получить, выбрав интересующий диапазон дат из раскрывающегося списка и нажав кнопку "Найти!".
*Определитесь, кто Вы:
Внимание! Время в таблицах - всемирное. Для получения местного времени необходимо прибавить поправку, которая равна 3 ч.
Некоторые строки с данными для отдельных станций могут быть выделены курсивом. Это означает, что фактические данные отсутствуют по различным причинам, а приведенные значения являются расчетными модельными данными для данного пункта наблюдений.
Смотрите также архив погоды в соседних городах и на ближайших метеорологических станциях:
Партнеры нашего сайта:      
Пояснения к столбцам:
  • Ветер - указаны скорость ветра в м/с - средняя за 10 мин, порывы в срок и между сроками (в фигурных скобках) и направление, откуда дует ветер: С - северный,
  • СВ - северо-восточный, В - восточный, ЮВ - юго-восточный, Ю - южный, ЮЗ - юго-западный, З - западный, СЗ - северо-западный.
  • Видимость - горизонтальная дальность видимости в метрах или километрах. При видимости от 1 до 10 км при отсутствии осадков обычно наблюдается дымка, при ухудшении видимости до 1 км и менее - туман. В сухую погоду видимость может ухудшаться дымом, пылью или мглою.
  • Явления - указаны атмосферные явления, наблюдавшиеся в срок или в последний час перед сроком; фигурными скобками обозначены явления, наблюдавшиеся между сроками (за 1-3 часа до срока); квадратными скобками обозначены град или гололедные отложения с указанием их диаметра в мм.
  • Облачность - указаны через наклонную черту общая и нижняя облачность в баллах и высота нижней границы облаков в метрах; квадратными скобками обозначены формы облаков: Ci - перистые, Cs - перисто-слоистые, Cc - перисто-кучевые, Ac - высококучевые, As - высокослоистые, Sc - слоисто-кучевые, Ns - слоисто-дождевые, Cu - кучевые, Cb - кучево-дождевые. Подробнее классификацию облаков см. в Атласе облаков (PDF).
  • T - Температура воздуха - температура, измеренная на высоте 2 м над землей.
  • Td - Температура точки росы - температура, при понижении до которой содержащийся в воздухе водяной пар достигнет насыщения.
  • f - Относительная влажность воздуха - влажноcть воздуха, измеренная на высоте 2 м над землей.
  • Te - Эффективная температура - температура, которую ощущает одетый по сезону человек в тени. Характеристика душности погоды. При расчете учитывается влияние влажности воздуха и скорости ветра на теплоощущения человека.
  • Tes - Эффективная температура на солнце - температура, которую ощущает человек, с поправкой на солнечный нагрев. Характеристика знойности погоды. Зависит от высоты солнца над горизонтом, облачности и скорости ветра. Ночью, в пасмурную погоду, а также при ветре 12 м/с и более поправка равна нулю.
  • P - Атмосферное давление - приведенное к уровню моря атмосферное давление.
  • Po - Атмосферное давление - измеренное на уровне метеостанции атмосферное давление.
  • Tmin - Минимальная температура - минимум температуры воздуха на высоте 2 м над землей.
  • Tmax - Максимальная температура - максимум температуры воздуха на высоте 2 м над землей.
  • R - Количество осадков - Количество выпавших осадков за период времени, мм. При наведении курсора мыши на число - период времени, за который выпало указанное количество осадков.
  • R24 - Количество осадков - Количество выпавших осадков за 24 часа, мм.
  • S - Снежный покров - Высота снежного покрова, см. При наведении курсора мыши на число - состояние снежного покрова и степень покрытия местности в баллах.